[[{"header":{"parameterUnit":"m.s-1","parameterCategory":2,"la1":30.2991,"la2":30.254,"lo1":-89.0895,"lo2":-89.0444,"dy":0.0017,"dx":0.0017,"nx":28,"ny":28,"refTime":"2025-08-09T03:00:00:Z","depth":"0","parameterNumber":2,"parameterNumberName":"U-component_of_CURRENTS"},"data":[0,0,0,0,0,0,0,0,0,0,0,0,0,0,0,0,0,0,0,0,0,0,0,0,0,0,0,0,0,0,0,0,0,0,0,0,0,0,0,0,0,0,0,0,0,0,0,0,0,0,0,0,0,0,0,0,0,0,-0.2194,-0.2195,0,-0.221,-0.221,-0.221,-0.2171,-0.217,-0.2169,-0.2168,-0.2116,-0.2116,-0.2115,0,0,0,0,0,0,0,0,0,0,0,0,0,-0.2128,-0.213,-0.2194,-0.2195,-0.2195,-0.221,-0.221,-0.221,-0.2172,-0.217,-0.2169,-0.2168,-0.2116,-0.2116,-0.2115,0,0,0,0,0,0,0,0,0,0,0,0,0,-0.215,-0.213,-0.2194,-0.2179,-0.2178,-0.221,-0.221,-0.221,-0.2172,-0.217,-0.2169,-0.2167,-0.2117,-0.2116,-0.2115,-0.2143,0,0,-0.2114,-0.2113,0,0,0,0,0,0,0,0,-0.2149,-0.2152,-0.2181,-0.218,-0.2179,-0.2189,-0.2168,-0.2185,-0.2172,-0.2172,-0.2168,-0.2167,-0.2137,-0.2134,-0.2139,-0.2141,-0.2139,-0.2113,-0.2113,-0.2113,-0.2113,0,0,0,0,0,0,0,-0.2147,-0.2151,-0.2199,-0.2181,-0.218,-0.2171,-0.2172,-0.2171,-0.216,-0.2172,-0.217,-0.2175,-0.2135,-0.214,-0.2137,-0.2138,-0.2113,-0.2113,-0.2113,-0.2112,-0.2142,-0.2144,0,0,0,0,0,0,-0.2152,-0.215,-0.2198,-0.2199,-0.2162,-0.2174,-0.2175,-0.2186,-0.2162,-0.2158,-0.2177,-0.2173,-0.2142,-0.2138,-0.2135,-0.2155,-0.2113,-0.2112,-0.2112,-0.2141,-0.2143,-0.2144,0,0,0,0,0,0,-0.215,-0.2156,-0.2197,-0.2176,-0.2181,-0.2177,-0.2189,-0.2187,-0.2185,-0.2166,-0.216,-0.2176,-0.214,-0.2136,-0.2138,-0.2153,-0.2112,-0.2111,-0.214,-0.2142,-0.2143,-0.2202,0,0,0,0,0,0,-0.2148,-0.2156,-0.2162,-0.2177,-0.2182,-0.2216,-0.2191,-0.2188,-0.2192,-0.2187,-0.2164,-0.2158,-0.2139,-0.2139,-0.2137,-0.2151,-0.2111,-0.2138,-0.2141,-0.2143,-0.2199,-0.2205,-0.2211,0,0,0,0,0,-0.2146,-0.2163,-0.2162,-0.2168,-0.2193,-0.2217,-0.2219,-0.2209,-0.2193,-0.2199,-0.2186,-0.2158,-0.2151,-0.214,-0.2138,-0.2152,-0.2137,-0.214,-0.2143,-0.2196,-0.2204,-0.2211,0,0,0,0,0,0,-0.2137,-0.2161,-0.2161,-0.2183,-0.2199,-0.2211,-0.2216,-0.2213,-0.221,-0.22,-0.2176,-0.2171,-0.2178,-0.2161,-0.215,-0.2168,-0.2139,-0.2141,-0.218,-0.2188,-0.2194,-0.2192,-0.211,0,0,0,0,0,-0.2141,-0.2156,-0.218,-0.2195,-0.2205,-0.2212,-0.2219,-0.2217,-0.2219,-0.2215,-0.2202,-0.219,-0.2191,-0.2185,-0.2181,-0.2194,-0.2169,-0.2201,-0.2208,-0.2213,-0.2211,-0.2206,-0.2211,-0.2153,-0.2153,-0.2153,0,0,-0.2141,-0.2156,-0.2163,-0.2194,-0.2202,-0.2225,-0.2211,-0.2226,-0.2241,-0.2211,-0.222,-0.2213,-0.2201,-0.2214,-0.2215,-0.2199,-0.2215,-0.2216,-0.2221,-0.2215,-0.2209,-0.2215,-0.222,-0.2154,-0.2154,-0.2154,0,0,-0.2149,-0.2164,-0.2178,-0.2198,-0.2219,-0.2231,-0.2237,-0.2254,-0.2255,-0.2273,-0.2256,-0.2262,-0.2257,-0.2258,-0.2256,-0.2298,-0.2252,-0.2292,-0.232,-0.2316,-0.2321,-0.2324,-0.229,-0.229,-0.2293,-0.2293,-0.2293,0,-0.2146,-0.217,-0.2186,-0.2209,-0.2224,-0.2235,-0.2257,-0.2272,-0.2286,-0.2291,-0.2278,-0.2287,-0.228,-0.23,-0.2316,-0.2313,-0.2288,-0.2291,-0.2324,-0.2327,-0.233,-0.2294,-0.2293,-0.2296,-0.2296,-0.2296,-0.2295,0,-0.2166,-0.2187,-0.2199,-0.2231,-0.2253,-0.2273,-0.2302,-0.2318,-0.2321,-0.233,-0.2347,-0.2347,-0.2346,-0.2355,-0.2348,-0.237,-0.2338,-0.2334,-0.2302,-0.2339,-0.2299,-0.2297,-0.2301,-0.23,-0.2299,-0.2298,0,0,-0.2146,-0.2202,-0.2203,-0.2219,-0.2264,-0.2282,-0.2319,-0.2351,-0.2361,-0.238,-0.2389,-0.2415,-0.2406,-0.2405,-0.2401,-0.2405,-0.241,-0.2379,-0.2377,-0.2341,-0.2373,-0.2273,-0.226,-0.2408,-0.2409,-0.2409,-0.2334,0,-0.2151,-0.2192,-0.2222,-0.2258,-0.228,-0.2312,-0.2343,-0.2373,-0.2389,-0.2402,-0.2416,-0.2421,-0.2428,-0.2423,-0.2435,-0.2415,-0.2409,-0.2428,-0.2346,-0.2343,-0.2246,-0.2257,-0.2161,-0.2078,-0.2332,-0.2331,-0.2331,0,-0.2149,-0.218,-0.2216,-0.2265,-0.2277,-0.2302,-0.2341,-0.2372,-0.2406,-0.2415,-0.2432,-0.2432,-0.2449,-0.2443,-0.2432,-0.2439,-0.2411,-0.2395,-0.2391,-0.2274,-0.2239,-0.2085,-0.2065,-0.2048,-0.2328,-0.2328,-0.2328,0,-0.2108,-0.2167,-0.2192,-0.2211,-0.2276,-0.2293,-0.2324,-0.2366,-0.2386,-0.2414,-0.2418,-0.2438,-0.2435,-0.2424,-0.2394,-0.2411,-0.2356,-0.2374,-0.2253,-0.2245,-0.2133,-0.2114,-0.2081,-0.2357,-0.2357,-0.2357,-0.2358,0,-0.2092,-0.2108,-0.2173,-0.2186,-0.2211,-0.2266,-0.2289,-0.2322,-0.2362,-0.2374,-0.2413,-0.2411,-0.2431,-0.2404,-0.2382,-0.2294,-0.2343,-0.2248,-0.222,-0.2149,-0.2133,-0.2087,-0.2104,-0.2355,-0.2355,-0.2356,-0.2356,0,-0.2032,-0.208,-0.2107,-0.2173,-0.219,-0.2203,-0.2263,-0.2276,-0.2327,-0.234,-0.2347,-0.2383,-0.2342,-0.2329,-0.2293,-0.2258,-0.2144,-0.2152,-0.2047,-0.2009,-0.1881,-0.1904,-0.1812,-0.1767,-0.2011,-0.2008,-0.2006,0,-0.2001,-0.2009,-0.2075,-0.2084,-0.2109,-0.2144,-0.2162,-0.2237,-0.2255,-0.2311,-0.2303,-0.2288,-0.2236,-0.2138,-0.2081,-0.1991,-0.2011,-0.1856,-0.1881,-0.1846,-0.1854,-0.1875,-0.1847,-0.1755,-0.1751,-0.1747,-0.1744,0,-0.1927,-0.1951,-0.1972,-0.2,-0.202,-0.2047,-0.2084,-0.2099,-0.2178,-0.218,-0.2162,-0.2122,-0.205,-0.1911,-0.1811,-0.1763,-0.1797,-0.1778,-0.1783,-0.1675,-0.1657,-0.1608,-0.1823,-0.1713,-0.1716,-0.1718,-0.172,-0.1721,-0.1848,-0.1846,-0.1873,-0.1887,-0.1913,-0.1921,-0.1904,-0.1948,-0.1945,-0.1927,-0.1971,-0.1866,-0.1791,-0.1629,-0.158,-0.1473,-0.1553,-0.1441,-0.1477,-0.1505,-0.1447,-0.157,-0.1409,-0.141,-0.1411,-0.1412,-0.1413,0,-0.1733,-0.1745,-0.1756,-0.1767,-0.1745,-0.1802,-0.1819,-0.1776,-0.1723,-0.1723,-0.1667,-0.154,-0.1401,-0.1363,-0.1261,-0.1199,-0.1207,-0.1185,-0.1222,-0.1213,-0.1343,-0.1317,-0.108,-0.108,-0.108,-0.108,-0.108,-0.108,-0.167,-0.1638,-0.1653,-0.1586,-0.1589,-0.1519,-0.1498,-0.1456,-0.143,-0.1309,-0.1241,-0.1222,-0.1188,-0.1204,-0.1112,-0.1067,-0.1074,-0.1019,-0.1071,-0.1201,-0.1229,-0.1257,-0.1237,-0.0987,-0.0987,-0.0897,-0.0896,-0.0896]},{"header":{"parameterUnit":"m.s-1","parameterCategory":2,"la1":30.2991,"la2":30.254,"lo1":-89.0895,"lo2":-89.0444,"dy":0.0017,"dx":0.0017,"nx":28,"ny":28,"refTime":"2025-08-09T03:00:00:Z","depth":"0","parameterNumber":3,"parameterNumberName":"V-component_of_CURRENTS"},"data":[0,0,0,0,0,0,0,0,0,0,0,0,0,0,0,0,0,0,0,0,0,0,0,0,0,0,0,0,0,0,0,0,0,0,0,0,0,0,0,0,0,0,0,0,0,0,0,0,0,0,0,0,0,0,0,0,0,0,-0.0305,-0.0304,0,-0.0232,-0.0231,-0.023,-0.0181,-0.0181,-0.0181,-0.0181,-0.0093,-0.0091,-0.0089,0,0,0,0,0,0,0,0,0,0,0,0,0,-0.0354,-0.0354,-0.0305,-0.0304,-0.0303,-0.0232,-0.0231,-0.0229,-0.0181,-0.0181,-0.0181,-0.018,-0.0094,-0.0091,-0.0089,0,0,0,0,0,0,0,0,0,0,0,0,0,-0.0311,-0.0354,-0.0305,-0.0272,-0.0268,-0.0232,-0.0231,-0.0229,-0.0181,-0.0181,-0.0181,-0.018,-0.0095,-0.0092,-0.0088,-0.0075,0,0,-0.0079,-0.0077,0,0,0,0,0,0,0,0,-0.0314,-0.0309,-0.0277,-0.0274,-0.027,-0.0216,-0.0216,-0.0177,-0.0181,-0.0213,-0.0181,-0.018,-0.0134,-0.0128,-0.0113,-0.0071,-0.0067,-0.0078,-0.0076,-0.0075,-0.0074,0,0,0,0,0,0,0,-0.0317,-0.0312,-0.0275,-0.0277,-0.0272,-0.0243,-0.0237,-0.0208,-0.0175,-0.021,-0.0207,-0.0201,-0.0132,-0.0116,-0.0111,-0.0066,-0.0078,-0.0076,-0.0074,-0.0072,0.0006,0.0006,0,0,0,0,0,0,-0.0331,-0.0315,-0.0277,-0.0273,-0.0293,-0.0243,-0.0236,-0.0233,-0.0175,-0.0167,-0.0201,-0.0199,-0.0122,-0.0114,-0.0107,-0.0088,-0.0075,-0.0072,-0.007,0.0006,0.0006,0.0006,0,0,0,0,0,0,-0.0333,-0.0329,-0.028,-0.0293,-0.0285,-0.0243,-0.0239,-0.0232,-0.0217,-0.0169,-0.016,-0.0195,-0.0121,-0.0112,-0.0081,-0.0084,-0.0071,-0.0068,0.0005,0.0006,0.0006,-0.0049,0,0,0,0,0,0,-0.0334,-0.033,-0.0333,-0.0294,-0.0285,-0.0266,-0.024,-0.023,-0.0214,-0.021,-0.016,-0.0152,-0.012,-0.0086,-0.0078,-0.0079,-0.0065,0.0005,0.0006,0.0006,-0.0047,-0.005,-0.0053,0,0,0,0,0,-0.0336,-0.0346,-0.0334,-0.033,-0.0291,-0.0266,-0.0259,-0.0227,-0.0214,-0.0211,-0.0175,-0.0153,-0.0078,-0.0083,-0.0074,-0.0074,0.0005,0.0005,0.0006,-0.0046,-0.005,-0.0053,0,0,0,0,0,0,-0.0369,-0.034,-0.0327,-0.0327,-0.0302,-0.0258,-0.0254,-0.0232,-0.02,-0.0198,-0.0151,-0.014,-0.0114,-0.0086,-0.0093,-0.005,-0.0033,-0.0031,-0.0075,-0.0079,-0.0082,-0.0096,-0.0063,0,0,0,0,0,-0.0379,-0.0379,-0.0344,-0.0344,-0.0335,-0.0296,-0.0282,-0.0261,-0.0228,-0.0214,-0.0178,-0.0139,-0.0105,-0.0086,-0.0054,-0.0031,0.0004,-0.0024,-0.0027,-0.003,-0.0034,0.0015,0.0016,0.0007,0.0007,0.0007,0,0,-0.0391,-0.0376,-0.0376,-0.0351,-0.0329,-0.0322,-0.0287,-0.0272,-0.0263,-0.021,-0.0188,-0.015,-0.0102,-0.0075,-0.0061,-0.0052,-0.0008,-0.003,-0.0033,-0.0035,0.0016,0.0017,0.0018,0.0007,0.0007,0.0007,0,0,-0.0421,-0.0404,-0.0415,-0.0397,-0.0372,-0.0346,-0.0346,-0.0306,-0.0284,-0.0259,-0.0217,-0.018,-0.0132,-0.0094,-0.007,-0.0069,-0.0027,-0.006,-0.0085,-0.0037,-0.0036,-0.0035,0.0012,0.0018,-0.006,-0.006,-0.0061,0,-0.0438,-0.0445,-0.0413,-0.0418,-0.0409,-0.0362,-0.0368,-0.034,-0.0294,-0.0274,-0.0261,-0.0178,-0.014,-0.0098,-0.0099,-0.0077,-0.0044,-0.0078,-0.0042,-0.004,-0.0038,0.001,0.0018,-0.0063,-0.0063,-0.0062,-0.0062,0,-0.0473,-0.0478,-0.0482,-0.0473,-0.0457,-0.0455,-0.0414,-0.0394,-0.0363,-0.0326,-0.028,-0.0223,-0.0172,-0.0154,-0.0127,-0.0092,-0.0071,-0.0055,-0.0037,-0.004,0.0011,0.0019,-0.0067,-0.0066,-0.0065,-0.0064,0,0,-0.0514,-0.0511,-0.0511,-0.0517,-0.0487,-0.0478,-0.0461,-0.0426,-0.0407,-0.0359,-0.0328,-0.0268,-0.023,-0.02,-0.0155,-0.0113,-0.0069,-0.0085,-0.0081,-0.0045,0.0038,0.0068,0.008,-0.0047,-0.0046,-0.0045,0.0068,0,-0.0551,-0.0582,-0.0561,-0.0577,-0.0588,-0.0539,-0.0525,-0.0484,-0.0437,-0.0394,-0.0325,-0.0281,-0.0248,-0.0223,-0.0177,-0.0091,-0.0049,-0.0101,0.0043,0.0047,0.0068,0.009,0.0105,0.0208,0.0077,0.0078,0.0079,0,-0.059,-0.0606,-0.0639,-0.0631,-0.0628,-0.0626,-0.0587,-0.0566,-0.049,-0.0451,-0.0391,-0.0331,-0.0259,-0.0235,-0.0098,-0.0133,-0.0059,0.0006,0.0012,0.0063,0.0093,0.0192,0.0229,0.031,0.0093,0.0092,0.0091,0,-0.0641,-0.0654,-0.0685,-0.0684,-0.0668,-0.0666,-0.0649,-0.0586,-0.0559,-0.0485,-0.045,-0.0357,-0.0295,-0.0202,-0.0067,-0.0082,0.009,0.009,0.0187,0.019,0.0243,0.0249,0.0369,0.0178,0.0178,0.0178,0.0178,0,-0.0691,-0.071,-0.0713,-0.073,-0.0751,-0.0717,-0.0713,-0.0675,-0.0612,-0.0568,-0.0487,-0.0421,-0.0283,-0.0165,-0.0067,0.0097,0.0095,0.019,0.0224,0.0225,0.0228,0.0333,0.0354,0.0182,0.0181,0.018,0.018,0,-0.0742,-0.0745,-0.0778,-0.078,-0.078,-0.0795,-0.0766,-0.0751,-0.0685,-0.0624,-0.0602,-0.0453,-0.0291,-0.0148,0.0035,0.0114,0.0309,0.0307,0.0298,0.0329,0.0471,0.0488,0.064,0.069,0.0424,0.0425,0.0426,0,-0.0771,-0.0798,-0.0825,-0.0846,-0.085,-0.086,-0.0859,-0.0801,-0.077,-0.0631,-0.0598,-0.0428,-0.0284,-0.0008,0.0159,0.0343,0.0398,0.0455,0.0423,0.0491,0.0536,0.0542,0.0573,0.0478,0.048,0.0481,0.0482,0,-0.0823,-0.0833,-0.0861,-0.0912,-0.0927,-0.0935,-0.0921,-0.0903,-0.0807,-0.0721,-0.0562,-0.0434,-0.0164,0.0073,0.0301,0.0405,0.0506,0.0486,0.0567,0.0598,0.0604,0.0664,0.0388,0.0494,0.0492,0.0492,0.0491,0.0491,-0.085,-0.0887,-0.0925,-0.0966,-0.0987,-0.0987,-0.0972,-0.0914,-0.0832,-0.0657,-0.0544,-0.0296,-0.0011,0.0324,0.0434,0.065,0.062,0.0708,0.0727,0.0732,0.0765,0.0509,0.0641,0.0641,0.064,0.064,0.064,0,-0.0878,-0.092,-0.0972,-0.1012,-0.1035,-0.1031,-0.0991,-0.0925,-0.0797,-0.0609,-0.0425,-0.0038,0.0243,0.0491,0.0777,0.0885,0.0895,0.0939,0.0953,0.0976,0.0772,0.0758,0.0907,0.0906,0.0906,0.0906,0.0906,0.0906,-0.0893,-0.0952,-0.0984,-0.1034,-0.1056,-0.1038,-0.1,-0.0864,-0.0705,-0.0379,-0.0111,0.0093,0.0428,0.0836,0.1089,0.1106,0.1188,0.1176,0.1229,0.108,0.1059,0.1039,0.1033,0.1237,0.1237,0.1424,0.1426,0.1428]}],[{"header":{"parameterUnit":"m.s-1","parameterCategory":2,"la1":30.2991,"la2":30.254,"lo1":-89.0895,"lo2":-89.0444,"dy":0.0017,"dx":0.0017,"nx":28,"ny":28,"refTime":"2025-08-09T03:00:00:Z","depth":"2","parameterNumber":2,"parameterNumberName":"U-component_of_CURRENTS"},"data":[0,0,0,0,0,0,0,0,0,0,0,0,0,0,0,0,0,0,0,0,0,0,0,0,0,0,0,0,0,0,0,0,0,0,0,0,0,0,0,0,0,0,0,0,0,0,0,0,0,0,0,0,0,0,0,0,0,0,-0.1815,-0.1815,0,-0.1825,-0.1825,-0.1825,-0.1797,-0.1796,-0.1795,-0.1795,-0.1759,-0.1758,-0.1758,0,0,0,0,0,0,0,0,0,0,0,0,0,-0.1766,-0.1766,-0.1815,-0.1815,-0.1816,-0.1825,-0.1825,-0.1825,-0.1797,-0.1796,-0.1795,-0.1794,-0.1759,-0.1758,-0.1758,0,0,0,0,0,0,0,0,0,0,0,0,0,-0.178,-0.1767,-0.1815,-0.1804,-0.1804,-0.1825,-0.1825,-0.1825,-0.1797,-0.1796,-0.1795,-0.1794,-0.1759,-0.1758,-0.1758,-0.1775,0,0,-0.1756,-0.1756,0,0,0,0,0,0,0,0,-0.178,-0.1782,-0.1806,-0.1805,-0.1804,-0.181,-0.1794,-0.1807,-0.1797,-0.1797,-0.1795,-0.1793,-0.1774,-0.1772,-0.1774,-0.1773,-0.1772,-0.1756,-0.1756,-0.1756,-0.1756,0,0,0,0,0,0,0,-0.1779,-0.1781,-0.1817,-0.1806,-0.1805,-0.1797,-0.1798,-0.1796,-0.1789,-0.1797,-0.1796,-0.18,-0.1773,-0.1774,-0.1773,-0.1771,-0.1756,-0.1756,-0.1755,-0.1755,-0.1783,-0.1784,0,0,0,0,0,0,-0.1783,-0.1781,-0.1817,-0.1817,-0.1792,-0.1799,-0.18,-0.1808,-0.179,-0.1787,-0.1801,-0.1799,-0.1776,-0.1773,-0.1771,-0.1794,-0.1756,-0.1755,-0.1755,-0.1782,-0.1784,-0.1785,0,0,0,0,0,0,-0.1782,-0.1787,-0.1816,-0.18,-0.1804,-0.1801,-0.181,-0.1809,-0.181,-0.1794,-0.1789,-0.1805,-0.1775,-0.1772,-0.1777,-0.1792,-0.1755,-0.1755,-0.1781,-0.1783,-0.1784,-0.1838,0,0,0,0,0,0,-0.1781,-0.1786,-0.1792,-0.1801,-0.1805,-0.1832,-0.1811,-0.181,-0.1816,-0.1813,-0.1796,-0.1791,-0.1774,-0.1778,-0.1776,-0.1791,-0.1754,-0.178,-0.1782,-0.1784,-0.1834,-0.1841,-0.1846,0,0,0,0,0,-0.1779,-0.1793,-0.1792,-0.1797,-0.1814,-0.1833,-0.1835,-0.1827,-0.1817,-0.1824,-0.1814,-0.1792,-0.1789,-0.1779,-0.1776,-0.1791,-0.1779,-0.1781,-0.1784,-0.1832,-0.184,-0.1846,0,0,0,0,0,0,-0.1775,-0.1792,-0.1791,-0.1809,-0.1822,-0.1829,-0.1835,-0.1834,-0.1833,-0.1828,-0.1807,-0.1803,-0.1812,-0.1798,-0.1787,-0.1806,-0.178,-0.1782,-0.1817,-0.1824,-0.183,-0.1829,-0.1754,0,0,0,0,0,-0.1779,-0.179,-0.1808,-0.1821,-0.1829,-0.1834,-0.184,-0.184,-0.1842,-0.184,-0.1831,-0.1823,-0.1822,-0.182,-0.1815,-0.1829,-0.1805,-0.1836,-0.1842,-0.1847,-0.1846,-0.1837,-0.1841,-0.1792,-0.1792,-0.1792,0,0,-0.178,-0.1791,-0.1797,-0.182,-0.1827,-0.1847,-0.1835,-0.185,-0.1864,-0.1837,-0.1849,-0.1843,-0.1831,-0.1844,-0.1846,-0.1832,-0.1848,-0.185,-0.1855,-0.185,-0.184,-0.1844,-0.1848,-0.1794,-0.1794,-0.1793,0,0,-0.1789,-0.18,-0.1813,-0.1829,-0.1848,-0.1856,-0.1864,-0.1879,-0.1881,-0.1899,-0.1883,-0.1889,-0.1887,-0.1884,-0.1881,-0.1919,-0.188,-0.1917,-0.1945,-0.1937,-0.194,-0.1943,-0.1914,-0.1914,-0.1919,-0.192,-0.192,0,-0.1789,-0.1808,-0.182,-0.184,-0.1853,-0.1864,-0.1883,-0.1896,-0.191,-0.1915,-0.1907,-0.1913,-0.1907,-0.192,-0.1935,-0.1932,-0.1912,-0.1919,-0.1943,-0.1946,-0.1948,-0.1918,-0.1917,-0.1922,-0.1922,-0.1922,-0.1921,0,-0.1807,-0.1825,-0.1836,-0.1863,-0.1882,-0.1902,-0.1925,-0.1941,-0.1947,-0.1954,-0.197,-0.1967,-0.1966,-0.1973,-0.1967,-0.1984,-0.1959,-0.1952,-0.1924,-0.1956,-0.1922,-0.192,-0.1926,-0.1925,-0.1925,-0.1924,0,0,-0.1792,-0.1839,-0.1841,-0.1856,-0.1895,-0.191,-0.1944,-0.197,-0.1982,-0.1999,-0.2009,-0.2027,-0.2022,-0.2019,-0.2014,-0.2014,-0.2018,-0.1994,-0.1993,-0.1962,-0.1982,-0.1895,-0.1884,-0.2014,-0.2015,-0.2015,-0.195,0,-0.1798,-0.1833,-0.1859,-0.1892,-0.1911,-0.1939,-0.1967,-0.1993,-0.2009,-0.2023,-0.203,-0.2038,-0.2041,-0.204,-0.2045,-0.2024,-0.2016,-0.2034,-0.1959,-0.1956,-0.1872,-0.1881,-0.1748,-0.1674,-0.1948,-0.1948,-0.1948,0,-0.1798,-0.1824,-0.1856,-0.19,-0.1911,-0.1935,-0.197,-0.1998,-0.2028,-0.2039,-0.2055,-0.2055,-0.2067,-0.206,-0.2041,-0.2051,-0.2023,-0.2003,-0.2,-0.1897,-0.1865,-0.1688,-0.166,-0.1944,-0.1945,-0.1945,-0.1945,0,-0.1764,-0.1816,-0.1838,-0.1855,-0.1911,-0.1929,-0.1958,-0.1996,-0.2015,-0.2045,-0.2051,-0.2066,-0.2061,-0.2047,-0.2015,-0.2029,-0.1973,-0.1983,-0.1874,-0.1867,-0.1726,-0.1706,-0.1961,-0.1961,-0.1961,-0.1961,-0.1961,0,-0.175,-0.1765,-0.1823,-0.1835,-0.1859,-0.1909,-0.1933,-0.1964,-0.2003,-0.2011,-0.2052,-0.2046,-0.2058,-0.203,-0.2008,-0.1922,-0.1963,-0.187,-0.1845,-0.174,-0.1723,-0.1939,-0.1937,-0.1959,-0.1959,-0.196,-0.196,0,-0.1699,-0.1741,-0.1766,-0.1825,-0.1842,-0.1856,-0.1913,-0.1924,-0.1976,-0.1985,-0.1994,-0.2023,-0.1982,-0.1969,-0.1927,-0.189,-0.1832,-0.1789,-0.1655,-0.1614,-0.1735,-0.1737,-0.1668,-0.1664,-0.1661,-0.1659,-0.1657,0,-0.1673,-0.1681,-0.1739,-0.1746,-0.177,-0.1805,-0.182,-0.1893,-0.1905,-0.1955,-0.1942,-0.1931,-0.1873,-0.1782,-0.1726,-0.1645,-0.1724,-0.1481,-0.149,-0.1723,-0.1706,-0.1713,-0.1719,-0.1324,-0.1319,-0.1316,-0.1312,0,-0.1609,-0.1631,-0.1648,-0.167,-0.1689,-0.1711,-0.1743,-0.1751,-0.1821,-0.1822,-0.1795,-0.1755,-0.1685,-0.1535,-0.1451,-0.1401,-0.1489,-0.1399,-0.1667,-0.1421,-0.1394,-0.1379,-0.1397,-0.1278,-0.1282,-0.1284,-0.1286,-0.1287,-0.1543,-0.1538,-0.1558,-0.1566,-0.159,-0.1588,-0.1562,-0.1596,-0.1585,-0.1552,-0.1596,-0.1483,-0.1459,-0.1246,-0.1176,-0.1139,-0.1247,-0.1197,-0.1211,-0.1229,-0.1203,-0.1172,-0.1008,-0.101,-0.1012,-0.1013,-0.1014,0,-0.1443,-0.1445,-0.1448,-0.1449,-0.1424,-0.1479,-0.1477,-0.1418,-0.1352,-0.1346,-0.1286,-0.1091,-0.099,-0.0986,-0.0871,-0.0847,-0.0869,-0.0816,-0.0847,-0.088,-0.0909,-0.0871,-0.0587,-0.0586,-0.0585,-0.0584,0,0,-0.1387,-0.1348,-0.135,-0.1272,-0.1272,-0.1192,-0.1161,-0.1091,-0.1054,-0.0923,-0.0859,-0.0913,-0.0929,-0.075,-0.0714,-0.0631,-0.0753,-0.0599,-0.0937,-0.1005,-0.1033,-0.1117,-0.1092,0,0,0,0,0]},{"header":{"parameterUnit":"m.s-1","parameterCategory":2,"la1":30.2991,"la2":30.254,"lo1":-89.0895,"lo2":-89.0444,"dy":0.0017,"dx":0.0017,"nx":28,"ny":28,"refTime":"2025-08-09T03:00:00:Z","depth":"2","parameterNumber":3,"parameterNumberName":"V-component_of_CURRENTS"},"data":[0,0,0,0,0,0,0,0,0,0,0,0,0,0,0,0,0,0,0,0,0,0,0,0,0,0,0,0,0,0,0,0,0,0,0,0,0,0,0,0,0,0,0,0,0,0,0,0,0,0,0,0,0,0,0,0,0,0,-0.0268,-0.0268,0,-0.0205,-0.0204,-0.0203,-0.0161,-0.0161,-0.0161,-0.0161,-0.0086,-0.0084,-0.0083,0,0,0,0,0,0,0,0,0,0,0,0,0,-0.0307,-0.0307,-0.0268,-0.0268,-0.0267,-0.0205,-0.0204,-0.0203,-0.0161,-0.0161,-0.0161,-0.0161,-0.0087,-0.0085,-0.0082,0,0,0,0,0,0,0,0,0,0,0,0,0,-0.0271,-0.0307,-0.0269,-0.024,-0.0236,-0.0205,-0.0204,-0.0203,-0.0161,-0.0161,-0.0161,-0.0161,-0.0087,-0.0085,-0.0082,-0.007,0,0,-0.0074,-0.0072,0,0,0,0,0,0,0,0,-0.0273,-0.0269,-0.0245,-0.0242,-0.0238,-0.0192,-0.019,-0.0158,-0.0161,-0.0189,-0.0161,-0.0161,-0.0121,-0.0116,-0.0103,-0.0067,-0.0064,-0.0073,-0.0072,-0.0071,-0.007,0,0,0,0,0,0,0,-0.0276,-0.0272,-0.0242,-0.0244,-0.024,-0.0214,-0.0209,-0.0184,-0.0156,-0.0186,-0.0183,-0.0178,-0.0119,-0.0106,-0.0101,-0.0062,-0.0074,-0.0071,-0.0069,-0.0068,0.0003,0.0003,0,0,0,0,0,0,-0.0288,-0.0274,-0.0244,-0.024,-0.0256,-0.0214,-0.0208,-0.0206,-0.0157,-0.0149,-0.0178,-0.0176,-0.0111,-0.0104,-0.0098,-0.0078,-0.0071,-0.0068,-0.0066,0.0002,0.0003,0.0003,0,0,0,0,0,0,-0.029,-0.0287,-0.0247,-0.0256,-0.025,-0.0214,-0.0212,-0.0205,-0.0192,-0.0151,-0.0143,-0.0173,-0.011,-0.0102,-0.0074,-0.0075,-0.0067,-0.0064,0.0002,0.0003,0.0003,-0.0039,0,0,0,0,0,0,-0.0291,-0.0287,-0.0292,-0.0258,-0.025,-0.0234,-0.0212,-0.0204,-0.019,-0.0187,-0.0144,-0.0137,-0.0109,-0.0079,-0.0072,-0.0071,-0.0062,0.0002,0.0002,0.0003,-0.0038,-0.004,-0.0042,0,0,0,0,0,-0.0293,-0.0302,-0.0293,-0.0289,-0.0257,-0.0234,-0.0228,-0.02,-0.019,-0.0187,-0.0155,-0.0138,-0.0071,-0.0076,-0.0068,-0.0066,0.0002,0.0002,0.0003,-0.0037,-0.004,-0.0042,0,0,0,0,0,0,-0.0321,-0.0297,-0.0287,-0.0288,-0.0265,-0.0227,-0.0224,-0.0205,-0.0177,-0.0176,-0.0135,-0.0126,-0.0102,-0.0078,-0.0085,-0.0043,-0.0032,-0.0029,-0.0065,-0.0067,-0.0069,-0.0082,-0.006,0,0,0,0,0,-0.033,-0.0331,-0.0301,-0.0303,-0.0294,-0.026,-0.0249,-0.023,-0.0201,-0.0189,-0.0157,-0.0123,-0.0093,-0.0076,-0.0047,-0.0026,0.0002,-0.0018,-0.002,-0.0022,-0.0026,0.0018,0.002,0.0005,0.0005,0.0005,0,0,-0.0341,-0.0329,-0.0329,-0.0309,-0.029,-0.0282,-0.0253,-0.024,-0.023,-0.0186,-0.0164,-0.0132,-0.0089,-0.0064,-0.0051,-0.0044,-0.0003,-0.0022,-0.0024,-0.0027,0.0019,0.002,0.0022,0.0005,0.0005,0.0005,0,0,-0.0366,-0.0354,-0.0363,-0.0348,-0.0326,-0.0303,-0.0302,-0.0267,-0.0248,-0.0224,-0.0188,-0.0155,-0.0112,-0.0077,-0.0055,-0.005,-0.0017,-0.0042,-0.0061,-0.0018,-0.0016,-0.0015,0.0022,0.0027,-0.0041,-0.0041,-0.0041,0,-0.0382,-0.0388,-0.0362,-0.0365,-0.0356,-0.0316,-0.032,-0.0294,-0.0253,-0.0236,-0.0225,-0.015,-0.0117,-0.0076,-0.0074,-0.0056,-0.0028,-0.0057,-0.0021,-0.0019,-0.0016,0.0021,0.0027,-0.0043,-0.0043,-0.0043,-0.0043,0,-0.041,-0.0414,-0.0418,-0.0408,-0.0394,-0.0392,-0.0354,-0.0336,-0.031,-0.0277,-0.0235,-0.0183,-0.0138,-0.0121,-0.0097,-0.0062,-0.0047,-0.0032,-0.0019,-0.0018,0.0022,0.0029,-0.0046,-0.0045,-0.0045,-0.0044,0,0,-0.0447,-0.0441,-0.0442,-0.0446,-0.0419,-0.0411,-0.0393,-0.0361,-0.0346,-0.03,-0.0273,-0.0216,-0.0183,-0.0156,-0.0115,-0.0077,-0.0037,-0.0053,-0.005,-0.0024,0.0055,0.0072,0.0082,-0.0016,-0.0015,-0.0014,0.0075,0,-0.0477,-0.0501,-0.0482,-0.0494,-0.0502,-0.0461,-0.0446,-0.041,-0.0369,-0.0331,-0.0268,-0.0229,-0.0196,-0.0175,-0.0131,-0.0058,-0.0019,-0.0063,0.0057,0.006,0.0069,0.009,0.007,0.0149,0.0083,0.0084,0.0085,0,-0.051,-0.0522,-0.0548,-0.0541,-0.0539,-0.0537,-0.0504,-0.0484,-0.0418,-0.0384,-0.0329,-0.0275,-0.0207,-0.0185,-0.0062,-0.0092,-0.0028,0.0028,0.0033,0.0068,0.0091,0.0139,0.0165,0.0097,0.0096,0.0096,0.0095,0,-0.0555,-0.0564,-0.0589,-0.0588,-0.0574,-0.0573,-0.0558,-0.0505,-0.0482,-0.0416,-0.0391,-0.0301,-0.0249,-0.0161,-0.0044,-0.0053,0.0092,0.0097,0.0174,0.0176,0.0192,0.0194,0.0177,0.0177,0.0177,0.0177,0.0176,0,-0.0596,-0.0613,-0.0615,-0.063,-0.0652,-0.062,-0.0621,-0.0589,-0.0535,-0.0502,-0.0425,-0.0372,-0.0241,-0.0139,-0.0047,0.0092,0.0094,0.0175,0.0203,0.0177,0.0176,0.0156,0.0152,0.018,0.0179,0.0179,0.0178,0,-0.0641,-0.0643,-0.0673,-0.0676,-0.0678,-0.0693,-0.0673,-0.0664,-0.0609,-0.0563,-0.0544,-0.0415,-0.0276,-0.0144,0.002,0.0094,0.0217,0.0263,0.022,0.0241,0.027,0.0264,0.0354,0.0356,0.0357,0.0358,0.0359,0,-0.0667,-0.069,-0.0717,-0.0738,-0.0744,-0.0757,-0.0761,-0.0712,-0.0691,-0.058,-0.0557,-0.0414,-0.0293,-0.0052,0.0103,0.0271,0.0268,0.0339,0.0318,0.0272,0.029,0.0282,0.0273,0.0325,0.0326,0.0326,0.0327,0,-0.0714,-0.0724,-0.075,-0.08,-0.082,-0.0832,-0.0828,-0.0818,-0.0741,-0.0675,-0.0549,-0.0443,-0.0211,-0.0013,0.0192,0.0283,0.0308,0.0352,0.0335,0.0277,0.0251,0.0266,0.0258,0.033,0.033,0.033,0.0329,0.0329,-0.0742,-0.0776,-0.0811,-0.0853,-0.0879,-0.0889,-0.0883,-0.0842,-0.0781,-0.0644,-0.0548,-0.0347,-0.0192,0.0129,0.0251,0.0369,0.0367,0.0394,0.0391,0.0387,0.0361,0.0338,0.0429,0.0429,0.0429,0.043,0.043,0,-0.0773,-0.0809,-0.0858,-0.09,-0.0928,-0.0929,-0.0908,-0.0858,-0.0763,-0.0613,-0.0463,-0.024,-0.0032,0.0135,0.0322,0.0416,0.0398,0.043,0.0383,0.0379,0.0376,0.0347,0.0413,0.0413,0.0413,0.0413,0,0,-0.0789,-0.0843,-0.087,-0.0924,-0.095,-0.0948,-0.0924,-0.0819,-0.0694,-0.0514,-0.0347,-0.0174,0.0014,0.0139,0.0247,0.0342,0.0335,0.0348,0.0352,0.028,0.0276,0.0347,0.0298,0,0,0,0,0]}],[{"header":{"parameterUnit":"m.s-1","parameterCategory":2,"la1":30.2991,"la2":30.254,"lo1":-89.0895,"lo2":-89.0444,"dy":0.0017,"dx":0.0017,"nx":28,"ny":28,"refTime":"2025-08-09T03:00:00:Z","depth":"4","parameterNumber":2,"parameterNumberName":"U-component_of_CURRENTS"},"data":[0,0,0,0,0,0,0,0,0,0,0,0,0,0,0,0,0,0,0,0,0,0,0,0,0,0,0,0,0,0,0,0,0,0,0,0,0,0,0,0,0,0,0,0,0,0,0,0,0,0,0,0,0,0,0,0,0,0,-0.1217,-0.1218,0,-0.1246,-0.1247,-0.1247,-0.1261,-0.1261,-0.1261,-0.1261,-0.128,-0.128,-0.1281,0,0,0,0,0,0,0,0,0,0,0,0,0,-0.1165,-0.1166,-0.1217,-0.1218,-0.1218,-0.1246,-0.1247,-0.1247,-0.1261,-0.1261,-0.1261,-0.1261,-0.128,-0.128,-0.1281,0,0,0,0,0,0,0,0,0,0,0,0,0,-0.1188,-0.1166,-0.1217,-0.123,-0.1231,-0.1246,-0.1247,-0.1247,-0.1261,-0.1261,-0.1261,-0.1261,-0.128,-0.128,-0.1281,-0.128,0,0,-0.1282,-0.1283,0,0,0,0,0,0,0,0,-0.1187,-0.119,-0.1227,-0.1229,-0.1231,-0.1252,-0.1235,-0.1258,-0.126,-0.1248,-0.1261,-0.1261,-0.127,-0.1272,-0.1274,-0.1281,-0.1281,-0.1282,-0.1283,-0.1283,-0.1283,0,0,0,0,0,0,0,-0.1185,-0.1189,-0.1227,-0.1228,-0.123,-0.1231,-0.1235,-0.1239,-0.1256,-0.1249,-0.125,-0.1256,-0.1271,-0.1274,-0.1275,-0.1282,-0.1282,-0.1283,-0.1283,-0.1283,-0.1336,-0.1337,0,0,0,0,0,0,-0.1186,-0.1187,-0.1226,-0.1228,-0.1211,-0.1232,-0.1236,-0.1243,-0.1256,-0.1259,-0.1256,-0.1257,-0.1273,-0.1274,-0.1276,-0.1322,-0.1283,-0.1283,-0.1284,-0.1335,-0.1336,-0.1337,0,0,0,0,0,0,-0.1185,-0.1189,-0.1225,-0.121,-0.1215,-0.1233,-0.1241,-0.1244,-0.1267,-0.1262,-0.1264,-0.1279,-0.1273,-0.1275,-0.13,-0.1321,-0.1284,-0.1284,-0.1334,-0.1335,-0.1337,-0.1386,0,0,0,0,0,0,-0.1183,-0.1188,-0.1203,-0.121,-0.1216,-0.1249,-0.1241,-0.1244,-0.127,-0.1272,-0.1282,-0.1283,-0.1273,-0.13,-0.1301,-0.1322,-0.1285,-0.1332,-0.1334,-0.1336,-0.1383,-0.1389,-0.1394,0,0,0,0,0,-0.1181,-0.1197,-0.1203,-0.1208,-0.1232,-0.125,-0.1253,-0.1265,-0.1271,-0.1286,-0.1296,-0.1284,-0.1313,-0.1301,-0.1302,-0.1324,-0.1331,-0.1334,-0.1336,-0.138,-0.1388,-0.1394,0,0,0,0,0,0,-0.1184,-0.1201,-0.1207,-0.1229,-0.1246,-0.1253,-0.1272,-0.1279,-0.1299,-0.1306,-0.1299,-0.1301,-0.1329,-0.1322,-0.1309,-0.1345,-0.132,-0.1322,-0.1353,-0.136,-0.1365,-0.1363,-0.1285,0,0,0,0,0,-0.1191,-0.1208,-0.1223,-0.1242,-0.1254,-0.1267,-0.128,-0.129,-0.1304,-0.1313,-0.1322,-0.133,-0.1336,-0.1346,-0.135,-0.1373,-0.1351,-0.1387,-0.1392,-0.1397,-0.1396,-0.1384,-0.1388,-0.1345,-0.1345,-0.1345,0,0,-0.1199,-0.121,-0.1221,-0.1245,-0.1259,-0.128,-0.1276,-0.1304,-0.1325,-0.1312,-0.135,-0.1352,-0.1347,-0.137,-0.1382,-0.137,-0.1398,-0.14,-0.1404,-0.14,-0.1387,-0.1391,-0.1395,-0.1347,-0.1346,-0.1346,0,0,-0.1214,-0.1233,-0.1251,-0.1268,-0.1296,-0.1305,-0.1319,-0.1342,-0.1359,-0.1391,-0.1384,-0.14,-0.1419,-0.1416,-0.1415,-0.1455,-0.1427,-0.1463,-0.1491,-0.148,-0.1484,-0.1486,-0.1463,-0.1463,-0.1467,-0.1467,-0.1467,0,-0.1224,-0.1245,-0.126,-0.1282,-0.13,-0.132,-0.1344,-0.1363,-0.1393,-0.1406,-0.1411,-0.1435,-0.1436,-0.145,-0.1467,-0.1467,-0.1453,-0.1466,-0.1487,-0.1489,-0.149,-0.1466,-0.1465,-0.147,-0.147,-0.1469,-0.1469,0,-0.1244,-0.1271,-0.1286,-0.1317,-0.134,-0.1367,-0.1393,-0.1422,-0.1445,-0.1457,-0.1487,-0.1489,-0.1499,-0.1507,-0.1502,-0.1519,-0.1503,-0.1493,-0.1467,-0.1497,-0.147,-0.1468,-0.1474,-0.1473,-0.1472,-0.1471,0,0,-0.1235,-0.1288,-0.1295,-0.1316,-0.1362,-0.1379,-0.1422,-0.1454,-0.1477,-0.1509,-0.1531,-0.1551,-0.1553,-0.1553,-0.1549,-0.1547,-0.1551,-0.1534,-0.1533,-0.1507,-0.1521,-0.1418,-0.1406,-0.1549,-0.1549,-0.1549,-0.1496,0,-0.1246,-0.1287,-0.1314,-0.136,-0.1382,-0.1418,-0.1451,-0.1486,-0.1514,-0.1542,-0.155,-0.157,-0.157,-0.1579,-0.158,-0.1558,-0.155,-0.1565,-0.1499,-0.1497,-0.1398,-0.1401,-0.1549,-0.1495,-0.1494,-0.1494,-0.1494,0,-0.1247,-0.1277,-0.1321,-0.1374,-0.1389,-0.1423,-0.1473,-0.1506,-0.1547,-0.1568,-0.1591,-0.1598,-0.161,-0.1602,-0.1579,-0.1592,-0.1564,-0.1542,-0.1539,-0.1422,-0.139,-0.1459,-0.149,-0.1491,-0.1491,-0.1491,-0.1491,0,-0.1213,-0.1277,-0.1312,-0.1332,-0.1398,-0.1429,-0.1466,-0.1515,-0.1538,-0.1585,-0.1598,-0.1616,-0.1616,-0.16,-0.1566,-0.1578,-0.1522,-0.1526,-0.1402,-0.1394,-0.1482,-0.148,-0.1499,-0.1499,-0.1499,-0.15,-0.15,0,-0.1195,-0.1226,-0.1304,-0.1322,-0.1363,-0.1419,-0.1462,-0.15,-0.1548,-0.1556,-0.1609,-0.1598,-0.1617,-0.159,-0.1565,-0.1467,-0.1518,-0.1397,-0.1371,-0.1504,-0.1505,-0.148,-0.1479,-0.1498,-0.1498,-0.1498,-0.1499,0,-0.1144,-0.1198,-0.1241,-0.1321,-0.1347,-0.1377,-0.1453,-0.147,-0.1532,-0.1542,-0.1557,-0.1584,-0.1541,-0.1535,-0.1491,-0.1439,-0.1375,-0.1326,-0.1459,-0.1442,-0.1257,-0.1259,-0.1184,-0.118,-0.1176,-0.1173,-0.1171,0,-0.1117,-0.1136,-0.1225,-0.1245,-0.1285,-0.1341,-0.1366,-0.1448,-0.1457,-0.1505,-0.1485,-0.1482,-0.148,-0.1324,-0.1347,-0.1279,-0.1262,-0.1228,-0.1255,-0.1241,-0.1224,-0.1231,-0.1238,-0.1165,-0.1164,-0.1163,-0.1163,0,-0.1057,-0.1101,-0.1131,-0.1174,-0.1212,-0.1245,-0.1289,-0.1287,-0.1354,-0.143,-0.1359,-0.1326,-0.1269,-0.1231,-0.1183,-0.1142,-0.1256,-0.1191,-0.1198,-0.1224,-0.1218,-0.1205,-0.1216,-0.115,-0.1152,-0.1153,-0.1154,0,-0.1007,-0.1011,-0.1053,-0.1077,-0.1123,-0.1118,-0.1162,-0.1155,-0.1176,-0.1236,-0.1203,-0.1201,-0.1236,-0.1156,-0.1114,-0.1065,-0.1053,-0.1023,-0.1039,-0.1053,-0.1037,-0.1012,-0.0846,0,0,0,0,0,-0.0947,-0.0931,-0.0946,-0.0961,-0.1003,-0.1023,-0.1086,-0.1129,-0.1201,-0.1108,-0.1152,-0.1092,-0.1026,-0.1034,-0.0952,-0.1067,-0.1067,-0.097,-0.1044,-0.1083,-0.1097,-0.1091,0,0,0,0,0,0,-0.0903,-0.0911,-0.0907,-0.0855,-0.0841,-0.0867,-0.09,-0.0952,-0.091,-0.0987,-0.0949,-0.1015,-0.0965,-0.1036,-0.0921,-0.0925,-0.0947,-0.0987,-0.0984,-0.1075,-0.1088,-0.1099,-0.1098,0,0,0,0,0]},{"header":{"parameterUnit":"m.s-1","parameterCategory":2,"la1":30.2991,"la2":30.254,"lo1":-89.0895,"lo2":-89.0444,"dy":0.0017,"dx":0.0017,"nx":28,"ny":28,"refTime":"2025-08-09T03:00:00:Z","depth":"4","parameterNumber":3,"parameterNumberName":"V-component_of_CURRENTS"},"data":[0,0,0,0,0,0,0,0,0,0,0,0,0,0,0,0,0,0,0,0,0,0,0,0,0,0,0,0,0,0,0,0,0,0,0,0,0,0,0,0,0,0,0,0,0,0,0,0,0,0,0,0,0,0,0,0,0,0,-0.0187,-0.0187,0,-0.0148,-0.0147,-0.0147,-0.0122,-0.0122,-0.0122,-0.0122,-0.0073,-0.0071,-0.007,0,0,0,0,0,0,0,0,0,0,0,0,0,-0.0205,-0.0205,-0.0188,-0.0187,-0.0187,-0.0148,-0.0147,-0.0147,-0.0122,-0.0122,-0.0122,-0.0122,-0.0073,-0.0072,-0.007,0,0,0,0,0,0,0,0,0,0,0,0,0,-0.0184,-0.0205,-0.0188,-0.017,-0.0168,-0.0148,-0.0147,-0.0147,-0.0122,-0.0122,-0.0122,-0.0122,-0.0074,-0.0072,-0.007,-0.0061,0,0,-0.0064,-0.0063,0,0,0,0,0,0,0,0,-0.0185,-0.0183,-0.0173,-0.0171,-0.0169,-0.014,-0.0136,-0.0118,-0.0122,-0.0139,-0.0122,-0.0122,-0.0095,-0.0091,-0.0083,-0.0058,-0.0056,-0.0064,-0.0063,-0.0062,-0.0062,0,0,0,0,0,0,0,-0.0187,-0.0184,-0.0171,-0.0173,-0.017,-0.0152,-0.0149,-0.0132,-0.0117,-0.0137,-0.0135,-0.0132,-0.0094,-0.0085,-0.0082,-0.0055,-0.0064,-0.0062,-0.0061,-0.0061,-0.0008,-0.0008,0,0,0,0,0,0,-0.0195,-0.0186,-0.0172,-0.017,-0.0178,-0.0152,-0.0149,-0.0149,-0.0117,-0.0113,-0.0133,-0.0131,-0.0088,-0.0084,-0.008,-0.0063,-0.0062,-0.006,-0.0059,-0.0009,-0.0008,-0.0008,0,0,0,0,0,0,-0.0196,-0.0195,-0.0174,-0.0177,-0.0174,-0.0152,-0.0153,-0.0148,-0.0143,-0.0114,-0.0109,-0.0132,-0.0088,-0.0083,-0.0064,-0.0061,-0.006,-0.0058,-0.0009,-0.0008,-0.0008,-0.0032,0,0,0,0,0,0,-0.0197,-0.0195,-0.0201,-0.0178,-0.0174,-0.0166,-0.0153,-0.0148,-0.0141,-0.0139,-0.0112,-0.0107,-0.0088,-0.0067,-0.0062,-0.0059,-0.0056,-0.0009,-0.0009,-0.0008,-0.0032,-0.0033,-0.0034,0,0,0,0,0,-0.0197,-0.0206,-0.0202,-0.02,-0.0182,-0.0167,-0.0163,-0.0146,-0.0141,-0.014,-0.0119,-0.0108,-0.006,-0.0065,-0.0059,-0.0056,-0.001,-0.0009,-0.0008,-0.0031,-0.0033,-0.0034,0,0,0,0,0,0,-0.0216,-0.0203,-0.0198,-0.0203,-0.0188,-0.0163,-0.0163,-0.0151,-0.0133,-0.0133,-0.0105,-0.0099,-0.0081,-0.0065,-0.0071,-0.0038,-0.0033,-0.0031,-0.0052,-0.0053,-0.0054,-0.0063,-0.0055,0,0,0,0,0,-0.0224,-0.0228,-0.0209,-0.0214,-0.0209,-0.0187,-0.018,-0.0169,-0.015,-0.0142,-0.012,-0.0097,-0.0074,-0.0062,-0.0041,-0.0025,-0.0007,-0.0018,-0.0019,-0.002,-0.0023,0.0012,0.0014,-0.0006,-0.0006,-0.0006,0,0,-0.0233,-0.0227,-0.023,-0.0218,-0.0207,-0.0202,-0.0183,-0.0177,-0.0169,-0.014,-0.0125,-0.0102,-0.007,-0.005,-0.0041,-0.0037,-0.0005,-0.0019,-0.002,-0.0022,0.0013,0.0015,0.0017,-0.0006,-0.0006,-0.0006,0,0,-0.0251,-0.0248,-0.0256,-0.0246,-0.0234,-0.0218,-0.0219,-0.0195,-0.0183,-0.0166,-0.014,-0.0114,-0.0085,-0.0056,-0.0039,-0.0032,-0.0013,-0.0027,-0.0037,-0.0003,-0.0001,0.0001,0.002,0.0023,-0.0026,-0.0026,-0.0026,0,-0.0264,-0.027,-0.0255,-0.0257,-0.0253,-0.0228,-0.0232,-0.0213,-0.0185,-0.0174,-0.0167,-0.0111,-0.0086,-0.0051,-0.0047,-0.0034,-0.0018,-0.0037,-0.0005,-0.0002,-0.0,0.0019,0.0024,-0.0027,-0.0027,-0.0027,-0.0026,0,-0.0282,-0.0289,-0.0292,-0.0288,-0.0279,-0.0279,-0.0253,-0.0242,-0.0225,-0.0202,-0.0169,-0.0129,-0.0095,-0.008,-0.0062,-0.003,-0.0026,-0.0012,-0.0005,0.0,0.002,0.0025,-0.0028,-0.0028,-0.0028,-0.0027,0,0,-0.0307,-0.0307,-0.0309,-0.0315,-0.0297,-0.0294,-0.028,-0.0258,-0.0251,-0.0215,-0.0196,-0.0146,-0.0123,-0.0102,-0.0069,-0.0037,-0.0006,-0.0022,-0.0019,-0.0008,0.0058,0.0046,0.0051,0.0013,0.0014,0.0014,0.0062,0,-0.0328,-0.0346,-0.0335,-0.0347,-0.0354,-0.0328,-0.0318,-0.0294,-0.0267,-0.0241,-0.0188,-0.0161,-0.0131,-0.0116,-0.0077,-0.0023,0.0007,-0.0021,0.0055,0.0057,0.0043,0.0057,0.0017,0.0066,0.0068,0.0068,0.0069,0,-0.0347,-0.0359,-0.038,-0.0382,-0.0382,-0.0385,-0.0368,-0.0355,-0.0307,-0.0285,-0.0241,-0.02,-0.0143,-0.0122,-0.0028,-0.0049,-0.0001,0.004,0.0043,0.0044,0.0056,0.0063,0.0078,0.0078,0.0077,0.0076,0.0076,0,-0.0376,-0.0388,-0.0411,-0.0411,-0.0408,-0.0413,-0.0408,-0.0373,-0.0361,-0.0314,-0.0299,-0.0224,-0.0188,-0.0114,-0.0027,-0.0027,0.0073,0.0084,0.0119,0.0118,0.0124,0.0121,0.0147,0.0147,0.0147,0.0146,0.0146,0,-0.0399,-0.0417,-0.0431,-0.0444,-0.047,-0.0451,-0.0463,-0.0443,-0.041,-0.0393,-0.0328,-0.0293,-0.0184,-0.011,-0.0035,0.0056,0.0069,0.0117,0.0133,0.0111,0.0107,0.0127,0.0124,0.0148,0.0148,0.0147,0.0147,0,-0.0423,-0.0432,-0.0462,-0.0478,-0.0487,-0.0506,-0.051,-0.051,-0.0475,-0.0451,-0.0437,-0.0341,-0.0243,-0.0138,-0.0012,0.004,0.013,0.0157,0.0116,0.0129,0.0152,0.0148,0.0198,0.0198,0.0198,0.0199,0.0199,0,-0.0435,-0.0455,-0.0497,-0.0522,-0.0535,-0.056,-0.0574,-0.0549,-0.054,-0.0475,-0.0459,-0.0363,-0.0291,-0.0119,-0.0015,0.0122,0.0142,0.0175,0.0174,0.0149,0.016,0.0155,0.015,0.0199,0.0199,0.0199,0.0199,0,-0.0459,-0.048,-0.0506,-0.0562,-0.0594,-0.0617,-0.0629,-0.0625,-0.0582,-0.0558,-0.0461,-0.0361,-0.025,-0.0114,-0.001,0.0089,0.0147,0.0176,0.0177,0.0176,0.015,0.0159,0.0155,0.0199,0.0199,0.0199,0.0199,0,-0.0477,-0.0505,-0.0546,-0.059,-0.0634,-0.0652,-0.0658,-0.0628,-0.0606,-0.0524,-0.0493,-0.036,-0.0278,-0.0131,-0.0033,0.006,0.0083,0.0105,0.011,0.0111,0.0071,0.0024,0.005,0,0,0,0,0,-0.049,-0.052,-0.0567,-0.0611,-0.0654,-0.0671,-0.068,-0.0671,-0.0633,-0.0566,-0.0521,-0.041,-0.0241,-0.0163,-0.007,-0.0049,0.0081,0.0059,0.0103,0.02,0.02,0.0167,0,0,0,0,0,0,-0.0499,-0.0545,-0.0566,-0.0615,-0.0645,-0.068,-0.0684,-0.066,-0.0609,-0.0558,-0.0461,-0.0401,-0.0235,-0.0291,-0.007,-0.0043,-0.0006,0.0142,0.0144,0.02,0.02,0.02,0.0166,0,0,0,0,0]}]]